• In Latvia
  • List of Countries
  • For 7 days
  • Water Temperature
  • Satellite Maps
  • Weather Map
  • Weather Widgets
  • user-avatar
    Login

    Hourly Weather Ozolnieki

    Today, 21 February, Wednesday

    Time Temperature Precipitation Wind Pressure Humidity
    00:00 -8°C° 0 mm 1 mps 769 mmHg 90%
    01:00 -8°C° 0 mm 1 mps 769 mmHg 91%
    02:00 -9°C° 0 mm 1 mps 769 mmHg 91%
    03:00 -9°C° 0 mm 1 mps 769 mmHg 92%
    04:00 -9°C° 0 mm 1 mps 769 mmHg 92%
    05:00 -9°C° 0 mm 1 mps 769 mmHg 93%
    06:00 -9°C° 0 mm 1 mps 769 mmHg 93%
    07:00 -9°C° 0 mm 1 mps 769 mmHg 93%
    08:00 -12°C° 0 mm 2 mps 769 mmHg 93%
    09:00 -10°C° 0 mm 2 mps 769 mmHg 90%
    10:00 -10°C° 0 mm 2 mps 769 mmHg 87%
    11:00 -9°C° 0 mm 2 mps 769 mmHg 84%
    12:00 -8°C° 0 mm 2 mps 769 mmHg 81%
    13:00 -8°C° 0 mm 2 mps 769 mmHg 78%
    14:00 -7°C° 0 mm 2 mps 769 mmHg 75%
    15:00 -7°C° 0 mm 2 mps 769 mmHg 76%
    16:00 -7°C° 0 mm 2 mps 769 mmHg 78%
    17:00 -7°C° 0 mm 2 mps 769 mmHg 79%
    18:00 -8°C° 0 mm 2 mps 769 mmHg 81%
    19:00 -8°C° 0 mm 2 mps 770 mmHg 83%
    20:00 -9°C° 0 mm 2 mps 770 mmHg 85%
    21:00 -8°C° 0 mm 1 mps 770 mmHg 86%
    22:00 -9°C° 0 mm 1 mps 771 mmHg 87%
    23:00 -9°C° 0 mm 1 mps 771 mmHg 87%

    Tomorrow, 22 February, Thursday

    Time Temperature Precipitation Wind Pressure Humidity
    00:00 -10°C° 0 mm 1 mps 771 mmHg 88%
    01:00 -10°C° 0 mm 1 mps 771 mmHg 89%
    02:00 -11°C° 0 mm 1 mps 772 mmHg 89%
    03:00 -11°C° 0 mm 1 mps 772 mmHg 90%
    04:00 -11°C° 0 mm 1 mps 772 mmHg 90%
    05:00 -12°C° 0 mm 1 mps 772 mmHg 91%
    06:00 -12°C° 0 mm 1 mps 772 mmHg 91%
    07:00 -12°C° 0 mm 1 mps 772 mmHg 91%
    08:00 -12°C° 0 mm 1 mps 772 mmHg 92%
    09:00 -11°C° 0 mm 1 mps 772 mmHg 87%
    10:00 -10°C° 0 mm 1 mps 772 mmHg 83%
    11:00 -8°C° 0 mm 1 mps 772 mmHg 78%
    12:00 -8°C° 0 mm 1 mps 772 mmHg 76%
    13:00 -7°C° 0 mm 1 mps 772 mmHg 73%
    14:00 -6°C° 0 mm 1 mps 772 mmHg 71%
    15:00 -7°C° 0 mm 0 mps 772 mmHg 74%
    16:00 -7°C° 0 mm 0 mps 772 mmHg 77%
    17:00 -8°C° 0 mm 0 mps 771 mmHg 80%
    18:00 -8°C° 0 mm 0 mps 771 mmHg 82%
    19:00 -9°C° 0 mm 0 mps 771 mmHg 84%
    20:00 -10°C° 0 mm 0 mps 771 mmHg 86%
    21:00 -10°C° 0 mm 0 mps 771 mmHg 87%
    22:00 -11°C° 0 mm 1 mps 771 mmHg 88%
    23:00 -11°C° 0 mm 1 mps 771 mmHg 89%

    Day after tomorrow, 23 February, Friday

    Time Temperature Precipitation Wind Pressure Humidity
    00:00 -11°C° 0 mm 1 mps 771 mmHg 90%
    01:00 -11°C° 0 mm 1 mps 771 mmHg 90%
    02:00 -11°C° 0 mm 1 mps 771 mmHg 90%
    03:00 -12°C° 0 mm 1 mps 771 mmHg 91%
    04:00 -14°C° 0 mm 2 mps 771 mmHg 91%
    05:00 -14°C° 0 mm 2 mps 770 mmHg 91%
    06:00 -14°C° 0 mm 2 mps 770 mmHg 91%
    07:00 -14°C° 0 mm 2 mps 770 mmHg 91%
    08:00 -14°C° 0 mm 2 mps 770 mmHg 91%
    09:00 -13°C° 0 mm 2 mps 769 mmHg 87%
    10:00 -12°C° 0 mm 2 mps 769 mmHg 84%
    11:00 -10°C° 0 mm 3 mps 769 mmHg 80%
    12:00 -10°C° 0 mm 3 mps 769 mmHg 79%
    13:00 -9°C° 0 mm 3 mps 768 mmHg 79%
    14:00 -8°C° 0 mm 3 mps 768 mmHg 78%
    15:00 -8°C° 0.3 mm 3 mps 768 mmHg 82%
    16:00 -9°C° 0.3 mm 3 mps 768 mmHg 86%
    17:00 -8°C° 0.3 mm 2 mps 768 mmHg 90%
    18:00 -8°C° 0.3 mm 2 mps 768 mmHg 91%
    19:00 -8°C° 0.3 mm 2 mps 768 mmHg 92%
    20:00 -8°C° 0.3 mm 2 mps 768 mmHg 93%
    21:00 -10°C° 0.1 mm 3 mps 769 mmHg 91%
    22:00 -10°C° 0.1 mm 3 mps 769 mmHg 90%
    23:00 -11°C° 0.1 mm 4 mps 769 mmHg 88%

    24 February, Saturday

    Time Temperature Precipitation Wind Pressure Humidity
    00:00 -12°C° 0 mm 4 mps 770 mmHg 88%
    01:00 -14°C° 0 mm 4 mps 770 mmHg 88%
    02:00 -15°C° 0 mm 4 mps 771 mmHg 88%
    03:00 -15°C° 0 mm 4 mps 771 mmHg 88%
    04:00 -15°C° 0 mm 4 mps 771 mmHg 89%
    05:00 -15°C° 0 mm 4 mps 772 mmHg 89%
    06:00 -15°C° 0 mm 4 mps 772 mmHg 88%
    07:00 -15°C° 0 mm 4 mps 773 mmHg 88%
    08:00 -15°C° 0 mm 4 mps 774 mmHg 87%
    09:00 -14°C° 0 mm 4 mps 774 mmHg 85%
    10:00 -14°C° 0 mm 4 mps 775 mmHg 83%
    11:00 -12°C° 0 mm 4 mps 775 mmHg 80%
    12:00 -12°C° 0 mm 4 mps 775 mmHg 79%
    13:00 -11°C° 0 mm 4 mps 775 mmHg 77%
    14:00 -11°C° 0 mm 4 mps 775 mmHg 76%
    15:00 -11°C° 0 mm 4 mps 775 mmHg 78%
    16:00 -11°C° 0 mm 4 mps 775 mmHg 79%
    17:00 -12°C° 0 mm 4 mps 776 mmHg 80%
    18:00 -12°C° 0 mm 3 mps 776 mmHg 83%
    19:00 -13°C° 0 mm 3 mps 776 mmHg 86%
    20:00 -14°C° 0 mm 3 mps 776 mmHg 88%
    21:00 -14°C° 0 mm 3 mps 776 mmHg 89%
    22:00 -14°C° 0 mm 2 mps 776 mmHg 90%
    23:00 -14°C° 0 mm 2 mps 776 mmHg 91%

    25 February, Sunday

    Time Temperature Precipitation Wind Pressure Humidity
    00:00 -15°C° 0 mm 2 mps 776 mmHg 91%
    01:00 -15°C° 0 mm 2 mps 776 mmHg 92%
    02:00 -16°C° 0 mm 2 mps 776 mmHg 93%
    03:00 -16°C° 0 mm 2 mps 776 mmHg 93%
    04:00 -16°C° 0 mm 2 mps 776 mmHg 94%
    05:00 -17°C° 0 mm 2 mps 776 mmHg 94%
    06:00 -17°C° 0 mm 2 mps 776 mmHg 94%
    07:00 -17°C° 0 mm 2 mps 776 mmHg 94%
    08:00 -17°C° 0 mm 2 mps 776 mmHg 94%
    09:00 -16°C° 0 mm 2 mps 776 mmHg 90%
    10:00 -15°C° 0 mm 2 mps 776 mmHg 86%
    11:00 -15°C° 0 mm 3 mps 776 mmHg 82%
    12:00 -15°C° 0 mm 3 mps 776 mmHg 80%
    13:00 -14°C° 0 mm 3 mps 776 mmHg 79%
    14:00 -13°C° 0 mm 3 mps 776 mmHg 77%
    15:00 -13°C° 0 mm 3 mps 776 mmHg 78%
    16:00 -13°C° 0 mm 3 mps 775 mmHg 80%
    17:00 -13°C° 0 mm 3 mps 775 mmHg 82%
    18:00 -13°C° 0 mm 2 mps 775 mmHg 84%
    19:00 -13°C° 0 mm 2 mps 775 mmHg 87%
    20:00 -13°C° 0 mm 2 mps 775 mmHg 89%
    21:00 -14°C° 0 mm 2 mps 775 mmHg 90%
    22:00 -12°C° 0 mm 1 mps 774 mmHg 90%
    23:00 -12°C° 0 mm 1 mps 774 mmHg 91%

    26 February, Monday

    Time Temperature Precipitation Wind Pressure Humidity
    00:00 -12°C° 0.1 mm 1 mps 774 mmHg 91%
    01:00 -13°C° 0.1 mm 2 mps 774 mmHg 92%
    02:00 -13°C° 0.1 mm 2 mps 774 mmHg 93%
    03:00 -13°C° 0.1 mm 2 mps 773 mmHg 94%
    04:00 -12°C° 0.1 mm 2 mps 773 mmHg 94%
    05:00 -12°C° 0.1 mm 2 mps 772 mmHg 94%
    06:00 -12°C° 0.1 mm 2 mps 772 mmHg 94%
    07:00 -13°C° 0.1 mm 2 mps 772 mmHg 94%
    08:00 -13°C° 0.1 mm 2 mps 771 mmHg 94%
    09:00 -12°C° 0 mm 2 mps 771 mmHg 90%
    10:00 -10°C° 0 mm 2 mps 771 mmHg 87%
    11:00 -9°C° 0 mm 2 mps 771 mmHg 83%
    12:00 -9°C° 0.1 mm 2 mps 770 mmHg 81%
    13:00 -8°C° 0.1 mm 2 mps 770 mmHg 79%
    14:00 -8°C° 0.1 mm 2 mps 770 mmHg 77%
    15:00 -9°C° 0.1 mm 3 mps 769 mmHg 78%
    16:00 -9°C° 0.1 mm 3 mps 769 mmHg 79%
    17:00 -10°C° 0.1 mm 3 mps 769 mmHg 80%
    18:00 -12°C° 0 mm 3 mps 769 mmHg 82%
    19:00 -13°C° 0 mm 3 mps 769 mmHg 85%
    20:00 -14°C° 0 mm 3 mps 769 mmHg 87%
    21:00 -15°C° 0 mm 3 mps 769 mmHg 88%
    22:00 -16°C° 0 mm 3 mps 769 mmHg 89%
    23:00 -17°C° 0 mm 3 mps 769 mmHg 89%
    Show more